Location: Chena
(64.8152°N, 147.9227°W)
Time: 14:09:34
(UTC+00:00)

N. Korean satellite - Pass Details

Date: 31 January 2021
Orbit: 451 x 503 km, 97.2° (Epoch: 28 February)

Event Time Altitude Azimuth Distance (km) Brightness Sun altitude
Rises 03:18:57 0° 204° (SSW) 2,557 10.9 -10.9°
Reaches altitude 10° 03:21:26 10° 221° (SW) 1,671 10.3 -11.1°
Maximum altitude 03:24:09 20° 271° (W) 1,167 9.5 -11.4°
Drops below altitude 10° 03:26:52 10° 320° (NW) 1,657 9.6 -11.7°
Sets 03:29:19 0° 338° (NNW) 2,530 10.3 -11.9°
